Temperature
13 13 13 13 13 13 13 13 13 13 13 13 13 13 13 13 14 14 14 14 15 15 15 15 15 15 15 14 14 14 14 14 14 14 14 14 14 15 15 15 15 15 14
13 13 13 13 13 13 13 13 13 13 13 13 13 14 14 14 14 14 14 14 15 15 15 15 15 15 14 14 14 14 14 14 14 14 14 14 14 14 14 14 14 14 14
13 13 13 13 13 13 13 14 14 14 14 14 14 14 14 14 14 14 14 15 15 15 15 15 15 15 15 14 14 14 14 14 14 14 14 14 14 14 14 14 14 14 14
12 13 13 13 13 13 13 13 14 14 14 14 14 14 14 14 14 14 14 14 15 15 15 15 15 15 15 15 15 14 14 14 14 14 14 14 14 14 14 14 14 14 14
12 12 12 12 12 12 13 13 13 13 13 13 14 14 14 14 14 14 14 14 14 15 15 15 15 15 15 15 15 15 14 14 14 14 14 14 14 14 14 14 14 14 14
12 12 12 12 12 12 12 12 12 12 12 13 13 13 13 13 14 14 14 14 14 14 15 15 15 15 14 14 15 14 14 14 14 14 14 14 14 13 13 13 13 13 13
12 12 11 12 12 12 12 12 12 12 12 12 12 12 12 12 13 13 13 14 14 14 14 14 14 14 14 14 14 14 14 14 14 14 14 14 13 13 13 13 13 13 13
12 11 11 11 11 11 11 11 11 11 11 11 11 11 12 12 12 12 12 13 13 13 14 14 14 14 14 14 14 14 14 14 14 14 14 13 13 13 13 13 13 13 12
12 11 11 11 11 11 11 11 11 11 11 11 11 11 11 11 11 12 12 12 12 13 13 13 13 13 14 14 14 14 14 14 14 14 14 14 13 13 13 13 13 12 12
12 12 11 11 11 11 11 11 10 10 10 10 11 11 11 11 11 11 11 12 12 12 12 12 13 13 13 13 14 14 14 14 14 14 13 13 13 13 13 13 13 12 12
12 12 12 11 11 11 11 11 10 10 10 10 10 10 10 10 11 11 11 11 11 11 11 12 12 12 13 13 13 13 14 14 13 13 13 13 13 13 12 12 12 12 12
13 12 12 11 11 11 11 11 10 10 10 10 10 10 10 10 10 10 10 10 10 10 11 11 11 12 12 12 13 13 13 13 13 13 13 13 13 12 12 12 12 12 11
13 12 12 11 11 11 11 11 10 10 10 10 10 10 10 10 10 10 10 10 10 10 10 11 11 11 11 12 12 12 13 13 13 13 13 12 12 12 12 12 11 11 11
13 12 12 11 11 11 11 10 10 10 10 10 10 10 9 10 10 10 10 10 10 10 10 10 11 11 11 11 12 12 12 12 12 12 12 12 12 11 11 11 11 11 11
13 12 12 11 11 11 11 10 10 10 10 10 9 9 9 9 9 9 9 9 10 10 10 10 10 10 11 11 11 11 12 12 12 12 12 11 11 11 11 11 11 10 10
13 12 12 12 11 11 11 10 10 10 9 9 9 9 9 8 8 9 9 9 9 10 10 10 10 10 10 11 11 11 11 11 11 11 11 11 11 11 10 10 10 10 10
13 12 12 12 11 11 11 10 10 10 9 9 9 8 8 8 8 9 9 9 9 10 10 10 10 10 10 10 10 10 10 10 10 10 10 10 10 10 10 10 9 9 9
13 12 12 12 11 11 11 11 10 10 9 9 9 8 8 8 8 8 9 9 9 9 10 9 9 9 9 10 10 10 10 10 10 10 10 10 10 9 9 9 9 9 8
13 13 12 12 12 11 11 11 11 10 10 9 9 9 8 8 8 8 9 9 9 9 9 9 9 9 9 9 9 9 9 9 9 9 9 9 9 9 9 8 8 8 8
13 13 12 12 12 12 11 11 11 10 10 9 9 9 8 9 9 9 9 9 9 9 9 9 9 9 9 9 9 9 9 9 9 9 9 8 8 8 8 8 8 8 7
13 13 13 12 12 12 11 11 11 11 10 10 9 9 9 9 9 9 9 9 9 9 9 9 9 9 9 9 9 9 9 9 9 8 8 8 8 8 7 7 7 7 7
13 13 13 13 12 12 12 11 11 11 10 10 9 9 9 9 9 9 9 9 9 9 9 9 9 9 9 9 9 9 9 8 8 7 7 7 7 7 7 7 7 7 7
14 13 13 13 13 12 12 12 11 11 11 10 10 9 9 9 9 9 9 9 9 9 9 9 9 9 9 9 9 9 9 8 8 7 7 7 7 7 7 7 7 7 7
14 14 13 13 13 13 12 12 12 11 11 11 10 10 10 9 9 9 10 10 10 10 10 9 9 9 10 10 10 9 9 8 8 7 7 7 7 7 7 8 8 7 7
14 14 13 13 13 13 13 12 12 12 11 11 11 10 10 10 9 9 10 10 10 10 10 10 10 10 10 10 10 10 9 9 8 8 7 7 7 7 7 7 7 7 6
14 13 13 13 13 13 13 13 12 12 12 11 11 11 10 10 10 10 10 10 10 10 10 10 10 10 10 10 10 10 9 9 8 8 8 8 8 8 7 7 7 7 6
Wind_Speed
7 7 7 6 5 4 3 2 2 2 2 1 2 1 2 2 2 2 3 4 5 4 4 5 5 4 4 4 3 3 4 4 5 4 3 2 2 3 3 8 11 11 12
6 6 7 7 6 6 5 4 3 2 2 2 2 2 3 3 2 2 3 4 5 5 5 5 5 4 5 4 4 4 4 4 5 5 2 2 3 3 3 3 5 7 8
8 8 8 9 9 8 8 6 6 5 5 6 5 5 5 4 4 3 2 3 3 4 4 5 5 5 5 4 4 4 3 3 4 3 2 2 2 1 1 2 2 2 4
9 9 10 9 9 8 8 9 9 8 8 8 8 7 7 7 6 5 4 3 3 2 2 4 5 6 6 6 4 4 3 2 2 2 2 1 1 0 1 2 2 2 2
8 9 9 8 8 8 8 9 9 9 10 8 8 8 7 6 6 5 4 3 2 2 1 3 4 6 8 6 4 4 4 3 2 2 1 0 0 0 1 1 1 1 1
8 8 8 8 8 9 8 8 9 9 8 8 8 7 8 8 10 9 5 2 1 0 1 1 1 4 6 7 7 6 6 4 3 2 1 1 1 1 0 1 1 1 1
6 7 7 7 8 8 8 8 8 7 7 8 7 7 7 9 15 13 10 4 2 1 1 1 2 3 4 4 4 5 3 3 5 5 3 2 2 1 2 2 1 1 0
5 6 6 7 7 7 7 7 7 5 6 6 6 7 7 11 17 16 12 7 5 5 3 2 4 3 3 5 5 4 2 1 2 3 3 2 2 2 3 3 2 2 2
4 5 5 5 6 7 7 6 5 5 5 5 5 7 8 10 17 16 12 6 6 7 7 6 4 4 4 6 6 5 3 1 1 4 4 5 5 5 5 4 3 3 3
2 3 4 4 6 6 6 6 5 5 6 6 8 8 8 9 16 17 13 5 5 5 5 6 7 5 4 5 6 6 6 3 4 4 4 4 4 4 5 3 3 3 2
1 3 4 5 5 6 6 6 6 7 7 7 8 7 8 9 13 16 14 5 4 3 3 3 4 5 4 4 5 5 6 6 4 5 4 3 3 3 3 3 3 3 2
2 4 5 5 5 6 7 7 7 7 8 7 7 7 7 8 10 13 15 11 6 2 2 2 3 4 4 4 3 4 6 6 5 5 4 3 3 2 2 3 5 5 4
3 5 5 6 6 6 6 7 6 6 6 6 6 6 6 7 9 15 14 13 10 4 2 3 3 5 6 5 5 5 5 5 5 5 4 3 2 2 3 3 5 7 9
5 5 5 5 5 6 5 5 5 5 5 5 6 6 6 6 8 8 8 7 8 6 5 6 8 9 7 6 6 5 4 4 5 5 4 3 3 3 4 3 3 3 4
5 5 5 4 5 5 5 4 4 4 3 3 3 4 5 6 8 11 8 7 6 5 5 6 7 6 6 6 6 6 5 5 5 4 5 5 5 5 4 4 4 4 4
4 4 4 4 4 4 4 3 5 3 5 6 5 4 4 6 8 11 14 15 14 12 9 8 8 8 8 7 7 7 6 6 5 5 6 5 5 5 5 5 5 5 5
4 4 3 4 4 4 3 2 0 3 5 6 7 7 8 10 11 11 11 13 15 12 10 9 8 8 8 7 7 7 6 6 5 6 6 6 5 5 5 5 5 5 5
4 4 4 3 4 4 4 3 2 1 1 3 5 7 8 10 11 11 10 9 9 9 7 7 7 7 7 7 7 6 6 6 6 6 6 5 5 5 5 5 5 4 4
2 3 3 3 3 3 4 4 3 3 2 1 3 5 6 8 10 11 9 6 6 6 6 6 6 6 6 6 6 6 6 6 6 5 5 5 5 5 5 5 5 6 4
1 3 4 3 2 3 4 4 4 4 3 1 1 1 2 4 4 5 5 4 4 4 4 5 5 5 5 5 5 5 5 5 5 5 4 4 4 5 5 6 5 4 3
2 2 2 2 2 3 4 5 5 5 4 3 1 1 2 3 2 2 2 2 2 3 3 3 4 4 4 4 4 5 5 5 4 4 4 4 4 5 5 5 4 4 4
2 3 2 3 3 3 4 5 5 5 5 4 3 1 3 3 2 2 2 1 1 1 1 2 3 3 2 2 3 4 4 4 4 4 3 4 4 5 4 4 4 3 4
3 3 3 3 4 5 5 5 5 6 5 5 5 3 3 3 3 3 2 2 2 1 2 3 2 2 4 4 4 3 3 2 2 2 3 4 4 4 4 4 4 4 4
3 3 3 3 3 4 5 5 6 6 6 6 5 5 5 4 4 4 3 3 2 2 2 3 4 4 4 4 4 4 2 1 1 1 4 5 5 5 4 4 4 4 4
4 4 4 3 4 5 5 6 6 6 6 6 6 5 5 5 5 5 4 3 4 3 3 4 5 5 5 4 4 3 3 2 2 4 6 6 6 5 4 4 3 3 4
5 5 4 4 4 5 5 6 6 7 7 6 6 6 6 6 6 6 5 5 4 3 4 6 7 7 6 5 4 3 3 3 4 6 8 8 5 5 5 4 5 4 5
Wind_Direction
17 17 20 18 21 31 35 24 21 17 9 7 351 338 306 274 255 243 239 215 195 194 190 184 196 189 188 191 184 183 188 182 215 253 249 251 227 217 191 202 214 219 228
10 19 20 20 26 31 29 22 17 6 359 355 353 351 338 324 317 273 254 239 212 202 198 194 210 200 196 196 192 198 197 193 199 233 255 244 229 216 198 200 205 213 225
20 26 29 29 31 30 26 27 36 42 48 45 47 41 32 28 23 4 319 284 258 237 213 200 205 187 194 196 196 199 198 193 190 205 244 249 248 221 194 228 222 217 231
27 31 33 30 29 31 35 39 42 47 56 60 60 61 57 47 36 26 17 357 335 299 255 220 204 189 192 189 188 191 181 171 172 189 224 267 284 285 157 215 245 238 253
31 33 29 28 32 38 43 45 48 53 58 58 63 57 48 45 30 20 8 8 7 352 296 230 213 200 195 180 169 171 161 153 147 150 161 70 5 54 221 220 223 300 302
34 30 25 30 34 37 40 45 51 50 50 55 58 55 45 36 27 22 13 350 339 330 290 275 197 177 185 178 167 162 156 151 155 149 152 161 234 225 164 116 110 67 342
32 27 25 30 34 32 38 42 44 44 46 48 44 42 34 23 30 29 30 32 22 335 225 176 146 146 148 152 157 146 136 135 150 154 154 180 185 204 143 105 97 105 1
29 25 26 34 36 33 37 38 37 38 42 41 38 34 30 26 30 29 30 30 33 32 34 86 117 120 155 165 160 150 141 100 151 140 150 163 159 141 131 131 125 90 45
25 22 27 40 42 38 34 28 26 36 38 34 30 31 29 17 24 28 33 27 42 39 39 53 84 102 131 156 152 150 135 74 95 131 136 128 125 122 113 91 75 73 51
1 29 49 55 51 44 34 29 29 43 43 41 38 34 31 21 21 27 31 33 41 36 35 35 46 63 80 131 148 146 144 147 129 112 99 94 84 85 88 97 120 106 97
355 54 61 59 59 54 46 40 43 48 46 42 39 30 25 17 16 22 26 30 29 33 33 18 7 26 55 89 127 144 158 151 139 128 113 100 85 67 58 70 99 118 117
78 77 68 58 62 62 55 44 39 43 45 34 28 20 13 7 8 13 22 28 32 48 19 345 337 15 51 75 102 128 133 130 124 118 110 100 97 85 67 70 75 76 81
106 102 95 76 62 59 60 53 42 38 42 33 27 22 8 2 3 11 17 23 27 33 11 14 37 51 61 62 71 96 107 118 122 119 118 109 100 93 79 70 59 66 61
124 126 121 100 79 62 54 50 51 40 38 35 29 19 6 3 7 6 7 13 18 27 28 39 56 64 63 58 58 66 81 108 121 120 114 96 77 70 61 61 66 61 59
124 132 132 125 113 89 66 48 50 35 29 33 16 4 6 6 0 14 29 27 24 27 43 53 52 52 56 53 54 58 63 76 86 89 96 92 81 72 57 50 66 68 72
125 136 146 149 140 126 112 70 26 11 9 18 17 14 353 0 14 34 39 40 39 44 61 61 58 58 59 59 61 60 58 64 74 86 88 89 88 84 74 62 70 79 77
146 153 151 157 162 165 166 156 111 338 342 354 5 14 27 29 40 43 42 44 41 47 62 60 57 56 56 58 59 63 60 54 64 76 81 83 86 84 82 79 79 81 76
139 154 149 155 166 177 186 182 169 156 5 343 350 9 34 46 49 47 43 50 46 45 52 54 52 50 53 58 59 61 61 58 62 66 70 74 81 87 85 83 82 90 85
151 169 167 165 171 166 158 151 147 144 113 27 4 6 31 54 51 45 46 57 62 51 46 46 44 45 48 54 58 59 61 59 59 63 64 70 79 89 90 89 87 85 82
240 218 187 173 169 158 153 149 151 149 141 114 52 355 6 49 47 33 38 53 65 61 52 48 43 45 48 53 57 61 62 58 55 59 63 69 78 89 99 98 96 93 83
296 277 228 186 191 183 173 171 170 166 168 175 214 255 145 111 103 82 66 64 77 80 70 59 49 45 46 50 59 63 64 55 48 51 64 77 88 92 95 97 97 92 91
317 289 260 228 214 197 185 178 173 176 183 187 208 214 135 121 133 130 117 120 122 99 85 79 64 51 52 63 79 82 70 55 39 37 58 82 93 101 103 98 94 88 91
320 305 286 251 217 202 186 178 177 182 191 196 195 193 179 171 174 177 178 173 162 135 96 97 94 79 80 80 82 94 98 65 7 14 79 96 102 108 110 109 108 104 101
317 308 298 270 225 210 201 197 192 191 193 194 194 193 191 189 189 191 187 177 169 154 132 127 131 137 128 105 93 91 85 37 21 69 107 116 116 115 111 105 103 108 106
309 303 295 273 239 224 217 210 203 198 196 195 194 193 190 187 188 189 185 183 181 181 172 160 153 148 143 132 115 96 79 74 96 126 128 122 121 121 117 111 107 104 109
301 297 292 276 250 228 216 211 208 203 201 200 196 192 188 187 189 189 185 185 186 187 181 177 176 169 161 149 131 108 87 90 122 135 135 127 123 127 125 115 114 106 112
Height
1512 1510 1508 1507 1505 1505 1504 1504 1504 1504 1504 1505 1505 1506 1508 1509 1511 1513 1514 1516 1517 1519 1520 1521 1522 1523 1524 1524 1524 1525 1525 1526 1526 1527 1527 1528 1529 1531 1532 1534 1535 1536 1538
1514 1513 1511 1510 1509 1508 1507 1506 1506 1506 1506 1506 1507 1508 1508 1510 1511 1512 1514 1515 1516 1517 1518 1519 1521 1521 1522 1522 1522 1522 1522 1523 1523 1523 1524 1525 1526 1527 1528 1530 1531 1532 1534
1517 1515 1513 1512 1511 1510 1509 1509 1508 1508 1508 1508 1508 1508 1509 1509 1510 1511 1513 1514 1515 1516 1517 1518 1519 1520 1520 1520 1520 1520 1520 1520 1520 1521 1521 1522 1522 1524 1525 1526 1528 1529 1530
1520 1518 1516 1515 1513 1512 1511 1510 1509 1509 1508 1508 1508 1508 1508 1509 1509 1510 1511 1512 1513 1515 1516 1517 1518 1518 1519 1519 1519 1518 1518 1518 1518 1519 1519 1519 1520 1521 1522 1523 1524 1525 1526
1524 1522 1520 1518 1517 1515 1513 1512 1510 1509 1509 1508 1508 1508 1508 1508 1508 1508 1509 1510 1511 1512 1513 1514 1515 1517 1517 1518 1518 1517 1517 1517 1517 1517 1518 1518 1518 1519 1520 1521 1521 1522 1522
1528 1526 1524 1522 1520 1518 1516 1514 1513 1511 1510 1509 1508 1508 1507 1507 1507 1507 1507 1507 1508 1509 1510 1512 1513 1514 1515 1516 1517 1517 1517 1517 1517 1517 1517 1518 1518 1518 1519 1519 1519 1520 1521
1532 1530 1527 1525 1523 1520 1519 1517 1515 1513 1512 1511 1509 1508 1507 1506 1506 1505 1504 1505 1505 1506 1507 1509 1511 1512 1514 1515 1516 1516 1517 1517 1517 1518 1518 1518 1518 1518 1518 1518 1518 1519 1519
1535 1533 1531 1528 1525 1523 1521 1519 1517 1516 1514 1513 1511 1510 1508 1507 1505 1504 1503 1503 1503 1504 1505 1506 1508 1510 1512 1514 1515 1516 1516 1517 1517 1518 1518 1519 1519 1519 1518 1519 1518 1519 1519
1538 1536 1533 1531 1528 1526 1523 1522 1520 1519 1517 1515 1513 1512 1510 1508 1506 1504 1503 1502 1502 1502 1503 1504 1506 1508 1510 1511 1513 1515 1516 1517 1518 1518 1519 1519 1519 1519 1519 1519 1519 1519 1519
1541 1539 1536 1533 1530 1528 1525 1524 1522 1521 1519 1517 1515 1513 1511 1509 1507 1505 1503 1502 1502 1501 1502 1502 1504 1505 1507 1509 1511 1513 1515 1516 1518 1518 1519 1519 1520 1520 1520 1520 1520 1520 1519
1543 1541 1538 1536 1533 1530 1528 1526 1525 1523 1521 1519 1517 1515 1513 1510 1508 1506 1504 1502 1501 1501 1501 1501 1502 1503 1505 1507 1509 1512 1514 1515 1517 1518 1519 1520 1520 1521 1521 1520 1520 1520 1520
1545 1543 1540 1538 1535 1533 1530 1529 1527 1525 1523 1521 1519 1517 1514 1511 1509 1506 1504 1502 1501 1500 1500 1500 1501 1502 1503 1505 1508 1510 1512 1515 1516 1518 1519 1520 1520 1521 1521 1521 1521 1521 1520
1546 1544 1542 1540 1538 1536 1533 1531 1530 1528 1526 1523 1521 1519 1516 1514 1511 1508 1506 1504 1502 1501 1500 1500 1500 1501 1503 1505 1507 1509 1512 1514 1516 1518 1519 1520 1521 1521 1521 1521 1521 1521 1521
1546 1545 1544 1542 1540 1538 1536 1534 1532 1530 1528 1526 1523 1521 1519 1516 1513 1510 1508 1506 1504 1503 1502 1501 1502 1502 1504 1505 1507 1509 1511 1514 1516 1517 1519 1520 1520 1521 1521 1522 1522 1522 1522
1547 1546 1545 1544 1542 1541 1539 1537 1535 1533 1531 1528 1526 1524 1521 1518 1516 1513 1511 1508 1506 1505 1504 1504 1504 1505 1506 1507 1509 1510 1512 1514 1516 1517 1519 1520 1521 1521 1522 1522 1522 1522 1522
1548 1547 1547 1545 1544 1543 1541 1539 1538 1535 1533 1531 1529 1527 1524 1522 1520 1517 1515 1512 1510 1509 1508 1507 1507 1508 1509 1510 1511 1512 1514 1515 1517 1518 1519 1520 1521 1522 1522 1522 1523 1522 1522
1549 1548 1547 1547 1546 1544 1543 1541 1540 1538 1536 1534 1531 1529 1527 1525 1523 1521 1519 1517 1515 1514 1512 1512 1512 1512 1513 1513 1514 1515 1516 1517 1518 1519 1520 1521 1522 1522 1523 1523 1523 1523 1522
1550 1549 1548 1548 1547 1546 1544 1543 1541 1540 1538 1536 1534 1532 1530 1528 1526 1524 1522 1521 1519 1517 1517 1516 1516 1516 1517 1517 1518 1518 1519 1520 1520 1521 1522 1522 1523 1523 1523 1523 1523 1523 1522
1551 1550 1549 1548 1547 1547 1545 1544 1543 1541 1539 1537 1535 1534 1532 1530 1528 1527 1525 1523 1522 1521 1520 1520 1520 1520 1520 1520 1520 1521 1521 1521 1522 1522 1523 1523 1523 1523 1523 1523 1523 1523 1522
1551 1550 1549 1549 1548 1547 1546 1545 1544 1542 1540 1539 1537 1535 1534 1532 1530 1528 1527 1525 1524 1523 1522 1522 1522 1522 1522 1522 1522 1522 1522 1522 1522 1522 1523 1523 1523 1523 1523 1523 1523 1523 1522
1550 1550 1549 1548 1548 1547 1546 1545 1544 1543 1541 1540 1538 1536 1535 1533 1532 1530 1528 1527 1526 1525 1524 1523 1523 1522 1522 1522 1522 1522 1522 1522 1522 1522 1522 1523 1523 1523 1523 1523 1523 1522 1522
1549 1548 1548 1547 1547 1546 1545 1544 1544 1543 1541 1540 1539 1537 1536 1534 1533 1531 1530 1528 1527 1526 1525 1524 1524 1523 1523 1522 1522 1522 1521 1521 1521 1522 1522 1523 1523 1523 1523 1523 1522 1522 1521
1546 1546 1546 1545 1545 1545 1544 1543 1542 1542 1541 1540 1539 1538 1536 1535 1534 1532 1531 1530 1529 1527 1526 1526 1525 1524 1523 1522 1522 1522 1521 1522 1522 1522 1523 1523 1523 1523 1523 1523 1522 1522 1521
1544 1543 1543 1543 1543 1543 1542 1542 1541 1541 1540 1539 1538 1537 1536 1535 1534 1533 1532 1531 1530 1529 1528 1527 1526 1525 1524 1523 1523 1522 1522 1522 1522 1522 1523 1523 1523 1523 1523 1523 1522 1522 1522
1541 1540 1540 1540 1540 1540 1540 1540 1540 1539 1539 1538 1537 1536 1536 1535 1534 1533 1532 1531 1530 1530 1529 1528 1527 1526 1525 1524 1523 1523 1523 1523 1523 1523 1523 1524 1524 1524 1523 1523 1523 1523 1523
1537 1537 1537 1536 1537 1537 1537 1537 1537 1537 1537 1536 1536 1535 1534 1534 1533 1532 1532 1531 1531 1530 1529 1529 1528 1527 1526 1525 1525 1524 1524 1524 1524 1524 1524 1524 1524 1524 1524 1524 1524 1524 1524